Location: Observatoire
(46.1952°N, 5.3391°E)
Time: 01:53:16
(UTC+01:00)

A-11 Canister half - Pass Details

Date: 18 February 2026
Orbit: 1525 x 1683 km, 47.3° (Epoch: 9 March)

Event Time Altitude Azimuth Distance (km) Brightness Sun altitude
Rises 22:12:37 0° 289° (WNW) 4,678 12.3 -41.5°
Reaches altitude 10° 22:15:41 10° 287° (WNW) 3,693 11.6 -41.9°
Enters shadow 22:22:22 50° 264° (W) 1,880 9.5 -42.9°
Maximum altitude 22:24:49 65° 209° (SSW) 1,659 - -43.2°
Drops below altitude 10° 22:34:06 10° 130° (SE) 3,744 - -44.5°
Sets 22:37:14 0° 127° (SE) 4,746 - -44.9°
